TimeAKST,TemperatureF,Dew PointF,Humidity,Sea Level PressureIn,VisibilityMPH,Wind Direction,Wind SpeedMPH,Gust SpeedMPH,PrecipitationIn,Events,Conditions,WindDirDegrees,DateUTC
12:16 AM,37.4,32.0,81,29.84,10.0,SE,17.3,24.2,N/A,,Overcast,140,2013-02-11 09:16:00
12:36 AM,37.4,32.0,81,29.84,10.0,SE,16.1,23.0,N/A,,Overcast,140,2013-02-11 09:36:00
12:56 AM,37.4,32.0,81,29.83,10.0,SE,16.1,21.9,N/A,,Overcast,130,2013-02-11 09:56:00
1:16 AM,37.4,32.0,81,29.82,10.0,SE,16.1,-,N/A,,Overcast,140,2013-02-11 10:16:00
1:36 AM,39.2,32.0,75,29.81,10.0,SE,16.1,25.3,N/A,,Overcast,140,2013-02-11 10:36:00
1:56 AM,39.2,32.0,75,29.80,10.0,SE,19.6,24.2,N/A,,Overcast,140,2013-02-11 10:56:00
2:16 AM,39.2,32.0,75,29.79,10.0,SE,21.9,29.9,N/A,,Overcast,140,2013-02-11 11:16:00
2:36 AM,39.2,32.0,75,29.79,10.0,SE,18.4,26.5,N/A,,Overcast,140,2013-02-11 11:36:00
2:56 AM,39.2,32.0,75,29.79,10.0,SE,23.0,28.8,N/A,,Overcast,140,2013-02-11 11:56:00
3:16 AM,39.2,32.0,75,29.78,10.0,SE,23.0,28.8,N/A,,Overcast,140,2013-02-11 12:16:00
3:36 AM,39.2,32.0,75,29.78,10.0,SE,20.7,26.5,N/A,,Overcast,140,2013-02-11 12:36:00
3:56 AM,39.2,32.0,75,29.78,10.0,SE,20.7,25.3,N/A,,Overcast,140,2013-02-11 12:56:00
4:16 AM,39.2,32.0,75,29.78,10.0,SE,20.7,28.8,N/A,,Overcast,140,2013-02-11 13:16:00
4:36 AM,39.2,32.0,75,29.79,10.0,SSE,11.5,-,N/A,,Overcast,150,2013-02-11 13:36:00
4:56 AM,39.2,32.0,75,29.80,10.0,SSE,12.7,21.9,N/A,,Overcast,150,2013-02-11 13:56:00
5:16 AM,37.4,33.8,87,29.80,10.0,SE,15.0,18.4,N/A,,Overcast,130,2013-02-11 14:16:00
5:36 AM,37.4,33.8,87,29.80,10.0,ESE,13.8,-,N/A,,Mostly Cloudy,120,2013-02-11 14:36:00
5:56 AM,39.2,33.8,81,29.79,10.0,SE,16.1,20.7,N/A,,Overcast,140,2013-02-11 14:56:00
6:16 AM,39.2,33.8,81,29.80,10.0,SE,12.7,-,N/A,,Overcast,140,2013-02-11 15:16:00
6:36 AM,39.2,33.8,81,29.80,10.0,SSE,12.7,20.7,N/A,,Overcast,150,2013-02-11 15:36:00
6:56 AM,39.2,33.8,81,29.80,10.0,SE,12.7,20.7,N/A,,Overcast,140,2013-02-11 15:56:00
7:16 AM,39.2,32.0,75,29.81,10.0,SE,13.8,-,N/A,,Overcast,140,2013-02-11 16:16:00
7:36 AM,39.2,33.8,81,29.81,10.0,SE,11.5,-,N/A,,Overcast,130,2013-02-11 16:36:00
7:56 AM,39.2,33.8,81,29.81,9.0,SSE,10.4,-,N/A,,Overcast,150,2013-02-11 16:56:00
8:16 AM,39.2,33.8,81,29.81,10.0,SSE,8.1,16.1,N/A,,Overcast,150,2013-02-11 17:16:00
8:36 AM,39.2,33.8,81,29.82,10.0,SE,9.2,-,N/A,,Overcast,140,2013-02-11 17:36:00
8:56 AM,39.2,33.8,81,29.82,10.0,SSE,5.8,-,N/A,,Overcast,160,2013-02-11 17:56:00
9:16 AM,39.2,33.8,81,29.84,10.0,SSW,9.2,-,N/A,,Overcast,210,2013-02-11 18:16:00
9:36 AM,37.4,33.8,87,29.84,10.0,South,4.6,-,N/A,,Overcast,170,2013-02-11 18:36:00
9:56 AM,37.4,33.8,87,29.85,10.0,Calm,Calm,-,N/A,,Overcast,0,2013-02-11 18:56:00
10:16 AM,39.2,33.8,81,29.86,10.0,Calm,Calm,-,N/A,,Overcast,0,2013-02-11 19:16:00
10:36 AM,39.2,33.8,81,29.86,10.0,SSE,5.8,-,N/A,,Overcast,150,2013-02-11 19:36:00
10:56 AM,39.2,33.8,81,29.86,9.0,South,6.9,-,N/A,,Overcast,170,2013-02-11 19:56:00
11:16 AM,39.2,33.8,81,29.87,10.0,SSW,5.8,-,N/A,,Overcast,200,2013-02-11 20:16:00
11:36 AM,39.2,33.8,81,29.87,10.0,SW,8.1,-,N/A,,Overcast,220,2013-02-11 20:36:00
11:56 AM,39.2,32.0,75,29.86,10.0,SSW,9.2,-,N/A,,Scattered Clouds,200,2013-02-11 20:56:00
12:16 PM,39.2,33.8,81,29.87,10.0,SE,8.1,-,N/A,,Clear,140,2013-02-11 21:16:00
12:36 PM,39.2,33.8,81,29.88,10.0,SSW,6.9,-,N/A,,Mostly Cloudy,210,2013-02-11 21:36:00
12:56 PM,37.4,32.0,81,29.88,10.0,SW,5.8,-,N/A,,Overcast,220,2013-02-11 21:56:00
1:56 PM,39.2,33.8,81,29.88,10.0,Calm,Calm,-,N/A,,Mostly Cloudy,0,2013-02-11 22:56:00
2:16 PM,39.2,33.8,81,29.88,10.0,Calm,Calm,-,N/A,,Mostly Cloudy,0,2013-02-11 23:16:00
2:36 PM,41.0,32.0,70,29.88,10.0,Calm,Calm,-,N/A,,Overcast,0,2013-02-11 23:36:00
2:56 PM,39.2,30.2,70,29.88,10.0,Calm,Calm,-,N/A,,Overcast,0,2013-02-11 23:56:00
3:16 PM,39.2,32.0,75,29.87,10.0,Calm,Calm,-,N/A,,Overcast,0,2013-02-12 00:16:00
3:36 PM,39.2,32.0,75,29.87,10.0,SSE,5.8,-,N/A,,Overcast,150,2013-02-12 00:36:00
3:56 PM,39.2,32.0,75,29.88,10.0,West,5.8,-,N/A,,Overcast,260,2013-02-12 00:56:00
4:16 PM,37.4,32.0,81,29.87,8.0,Calm,Calm,-,N/A,,Mostly Cloudy,0,2013-02-12 01:16:00
4:36 PM,37.4,30.2,75,29.86,10.0,SSE,3.5,-,N/A,,Scattered Clouds,160,2013-02-12 01:36:00
4:56 PM,35.6,30.2,81,29.86,10.0,SSE,4.6,-,N/A,,Mostly Cloudy,160,2013-02-12 01:56:00
5:16 PM,37.4,30.2,75,29.86,10.0,Calm,Calm,-,N/A,,Overcast,0,2013-02-12 02:16:00
5:36 PM,37.4,30.2,75,29.86,10.0,Calm,Calm,-,N/A,,Overcast,0,2013-02-12 02:36:00
5:56 PM,35.6,30.2,81,29.86,8.0,Calm,Calm,-,N/A,,Overcast,0,2013-02-12 02:56:00
6:16 PM,37.4,30.2,75,29.85,10.0,Calm,Calm,-,N/A,,Mostly Cloudy,0,2013-02-12 03:16:00
6:36 PM,35.6,30.2,81,29.84,10.0,East,3.5,-,N/A,,Scattered Clouds,80,2013-02-12 03:36:00
6:56 PM,33.8,30.2,87,29.84,10.0,ENE,4.6,-,N/A,,Mostly Cloudy,70,2013-02-12 03:56:00
7:16 PM,33.8,30.2,87,29.84,10.0,Calm,Calm,-,N/A,,Overcast,0,2013-02-12 04:16:00
7:36 PM,33.8,30.2,87,29.84,10.0,Calm,Calm,-,N/A,,Overcast,0,2013-02-12 04:36:00
7:56 PM,33.8,30.2,87,29.84,10.0,WSW,3.5,-,N/A,,Overcast,250,2013-02-12 04:56:00
8:16 PM,35.6,30.2,81,29.84,10.0,SW,3.5,-,N/A,,Overcast,220,2013-02-12 05:16:00
8:36 PM,35.6,30.2,81,29.83,10.0,Calm,Calm,-,N/A,,Mostly Cloudy,0,2013-02-12 05:36:00
8:56 PM,35.6,30.2,81,29.83,10.0,NE,6.9,-,N/A,,Overcast,40,2013-02-12 05:56:00
9:16 PM,33.8,30.2,87,29.82,10.0,Calm,Calm,-,N/A,,Overcast,0,2013-02-12 06:16:00
9:36 PM,35.6,30.2,81,29.82,10.0,Calm,Calm,-,N/A,,Overcast,0,2013-02-12 06:36:00
9:56 PM,33.8,30.2,87,29.81,10.0,Calm,Calm,-,N/A,,Overcast,0,2013-02-12 06:56:00
10:16 PM,33.8,28.4,81,29.80,10.0,Calm,Calm,-,N/A,,Overcast,0,2013-02-12 07:16:00
10:36 PM,33.8,28.4,81,29.80,10.0,Calm,Calm,-,N/A,,Overcast,0,2013-02-12 07:36:00
10:56 PM,33.8,30.2,87,29.79,10.0,Calm,Calm,-,N/A,,Overcast,0,2013-02-12 07:56:00
11:16 PM,33.8,28.4,81,29.79,10.0,Calm,Calm,-,N/A,,Overcast,0,2013-02-12 08:16:00
11:36 PM,33.8,28.4,81,29.78,10.0,Calm,Calm,-,N/A,,Overcast,0,2013-02-12 08:36:00
11:56 PM,33.8,28.4,81,29.78,10.0,Calm,Calm,-,N/A,,Overcast,0,2013-02-12 08:56:00